This demonstration page uses our WeatherBlox Daily Observations layout. Learn more.

Left ArrowRight Arrow

38.80484, -77.04692

Hourly Observations for September 1, 2021

Temp ( °F °C ) Dew Point ( °F °C ) Humidity (%) Winds ( mph kmh ) Pressure ( in mb ) Visibility ( mi km ) Precip ( " mm )
12:52 am 00:52 Cloudy 78 25.6 72 22.2 82 82 NE 3 6 29.78 1009 10 16 0.00 0.00
1:52 am 01:52 Cloudy with Light Rain 78 25.6 71 21.7 79 79 NE 6 9 29.77 1008 10 16 0.00 0.00
2:21 am 02:21 Cloudy with Thunderstorms 77 25 72 22.2 85 85 NE 9 15 29.75 1007 10 16 0.00 0.00
2:52 am 02:52 Cloudy with Thunderstorms 78 25.6 73 22.8 85 85 E 12 19 29.72 1007 10 16 0.00 0.00
3:39 am 03:39 Windy with Storms Likely 78 25.6 72 22.2 82 82 W 21 33 29.73 1007 3 5 0.00 0.00
3:41 am 03:41 Cloudy with Strong Thunderstorms 77 25 72 22.2 85 85 WNW 13 20 29.75 1007 3 5 0.01 0.25
3:52 am 03:52 Cloudy with Thunderstorms 75 23.9 71 21.7 88 88 NW 14 22 29.74 1007 7 11 0.30 7.62
4:18 am 04:18 Cloudy with Nearby Thunderstorms 76 24.4 70 21.1 82 82 N 13 20 29.74 1007 10 16 0.00 0.00
4:25 am 04:25 Cloudy 76 24.4 71 21.7 85 85 NNE 9 15 29.74 1007 10 16 0.00 0.00
4:52 am 04:52 Cloudy 76 24.4 71 21.7 85 85 NNE 8 13 29.73 1007 10 16 0.00 0.00
5:40 am 05:40 Cloudy 75 23.9 71 21.7 88 88 NE 8 13 29.72 1006 10 16 N/A
5:52 am 05:52 Cloudy 75 23.9 71 21.7 88 88 NNE 6 9 29.72 1007 10 16 N/A
6:52 am 06:52 Cloudy 75 23.9 71 21.7 88 88 NNE 3 6 29.72 1007 10 16 N/A
7:52 am 07:52 Cloudy 76 24.4 72 22.2 88 88 N N/A 29.71 1006 10 16 N/A
8:23 am 08:23 Cloudy 78 25.6 73 22.8 85 85 S 7 11 29.71 1006 10 16 N/A
8:52 am 08:52 Cloudy 79 26.1 73 22.8 82 82 SSE 8 13 29.70 1006 10 16 N/A
9:52 am 09:52 Cloudy 79 26.1 72 22.2 79 79 SSE 10 17 29.69 1005 10 16 N/A
10:52 am 10:52 Cloudy 81 27.2 73 22.8 77 77 SSE 8 13 29.66 1004 10 16 N/A
11:52 am 11:52 Cloudy 82 27.8 73 22.8 74 74 SSE 13 20 29.63 1003 10 16 N/A
12:15 pm 12:15 Cloudy 83 28.3 73 22.8 72 72 SSE 17 28 29.62 1003 10 16 N/A
12:52 pm 12:52 Cloudy 84 28.9 72 22.2 67 67 S 20 31 29.58 1002 10 16 N/A
1:21 pm 13:21 Cloudy with Light Rain 83 28.3 72 22.2 70 70 S 18 30 29.57 1001 4 6 0.00 0.00
1:25 pm 13:25 Cloudy with Rain 81 27.2 73 22.8 77 77 S 17 28 29.57 1001 2 3 0.01 0.25
1:36 pm 13:36 Cloudy with Heavy Rain 79 26.1 74 23.3 85 85 SSW 9 15 29.57 1001 1 1 0.06 1.52
1:45 pm 13:45 Cloudy with Heavy Rain 79 26.1 75 23.9 88 88 S 17 28 29.57 1001 1 2 0.18 4.57
1:52 pm 13:52 Cloudy with Rain 79 26.1 74 23.3 85 85 SSE 15 24 29.56 1001 3 4 0.23 5.84
1:56 pm 13:56 Cloudy with Light Rain 79 26.1 74 23.3 85 85 SSE 18 30 29.56 1001 4 6 0.01 0.25
2:02 pm 14:02 Cloudy with Light Rain 80 26.7 74 23.3 82 82 S 16 26 29.56 1001 6 10 0.01 0.25
2:27 pm 14:27 Cloudy 81 27.2 74 23.3 79 79 S 18 30 29.56 1001 10 16 0.01 0.25
2:52 pm 14:52 Cloudy with Light Rain 79 26.1 73 22.8 82 82 S 15 24 29.54 1000 8 13 0.01 0.25
3:02 pm 15:02 Cloudy with Heavy Rain 78 25.6 73 22.8 85 85 SSW 15 24 29.54 1000 3 4 0.03 0.76
3:09 pm 15:09 Cloudy with Heavy Rain 78 25.6 74 23.3 87 87 S 16 26 29.54 1000 1 1 0.13 3.30
3:18 pm 15:18 Cloudy with Heavy Rain 77 25 74 23.3 90 90 SW 8 13 29.52 1000 2 3 0.31 7.87
3:45 pm 15:45 Cloudy with Light Rain 78 25.6 75 23.9 90 90 S 8 13 29.52 1000 6 10 0.51 12.95
3:52 pm 15:52 Mostly Cloudy 79 26.1 75 23.9 88 88 SSW 9 15 29.52 1000 10 16 0.51 12.95
4:52 pm 16:52 Mostly Cloudy 82 27.8 75 23.9 79 79 SSW 13 20 29.50 999 10 16 0.00 0.00
5:05 pm 17:05 Mostly Cloudy with Light Rain 82 27.8 75 23.9 79 79 S 10 17 29.50 999 10 16 0.00 0.00
5:36 pm 17:36 Cloudy 81 27.2 74 23.3 79 79 S 16 26 29.49 999 10 16 0.00 0.00
5:52 pm 17:52 Cloudy 80 26.7 74 23.3 82 82 S 12 19 29.48 998 10 16 0.00 0.00
6:03 pm 18:03 Cloudy with Nearby Thunderstorms 80 26.7 74 23.3 82 82 SSW 17 28 29.49 999 2 3 N/A
6:04 pm 18:04 Cloudy with Strong Thunderstorms 80 26.7 74 23.3 82 82 SSW 17 28 29.49 999 2 3 0.00 0.00
6:09 pm 18:09 Cloudy with Strong Thunderstorms 78 25.6 73 22.8 85 85 SSW 23 37 29.49 999 1 2 0.08 2.03
6:14 pm 18:14 Cloudy with Strong Thunderstorms 78 25.6 73 22.8 85 85 SW 16 26 29.50 999 1 2 0.12 3.05
6:21 pm 18:21 Cloudy with Thunderstorms 77 25 73 22.8 88 88 SW 14 22 29.50 999 2 3 0.25 6.35
6:28 pm 18:28 Cloudy with Nearby Thunderstorms 77 25 73 22.8 88 88 WSW 10 17 29.50 999 4 6 0.26 6.60
6:47 pm 18:47 Mostly Cloudy with Light Rain 75 24 72 22 89 89 WSW 10 17 29.50 999 9 14 0.28 7.11
6:52 pm 18:52 Cloudy with Light Rain 76 24.4 72 22.2 88 88 WSW 10 17 29.50 999 10 16 0.29 7.37
7:13 pm 19:13 Cloudy 74 23.3 70 21.1 88 88 W 14 22 29.52 1000 10 16 0.00 0.00
7:41 pm 19:41 Cloudy 72 22.2 66 18.9 82 82 NW 15 24 29.55 1001 10 16 0.00 0.00
7:52 pm 19:52 Cloudy 71 21.7 66 18.9 84 84 NW 14 22 29.54 1001 10 16 0.00 0.00
8:08 pm 20:08 Cloudy with Light Rain 70 21.1 65 18.3 84 84 NW 14 22 29.56 1001 10 16 0.00 0.00
8:52 pm 20:52 Cloudy 69 20.6 64 17.8 84 84 NW 17 28 29.59 1002 7 11 0.00 0.00
9:52 pm 21:52 Cloudy with Light Rain 68 20 64 17.8 87 87 NNW 18 30 29.64 1004 10 16 0.00 0.00
10:52 pm 22:52 Cloudy 68 20 63 17.2 84 84 NNW 25 41 29.67 1005 10 16 0.00 0.00
11:52 pm 23:52 Cloudy 68 20 61 16.1 78 78 NNW 16 26 29.70 1006 10 16 N/A

Powered by AerisWeather